HELIOS 1B

Last updated on Sun Jan 18 2026 00:02:13 GMT+0000 (Coordinated Universal Time)

1 25977U 99064A 26017.66045253 .00001450 00000+0 16663-3 0 9999 2 25977 98.1745 278.3933 0000737 134.4938 225.6337 14.87447365677670
UTC large
Height (km)
Speed (km/s)
/
Latitude / Longitude
Inclination (degrees)
Orbital Period (minutes)
Azimuth
Elevation
Range (km)
Doppler Factor

Next 0 passes for location: London (51.5072 / 0.1276)

Sorry there are no passes over London.